Monument Pass, CO

1:13 AM MDT on September 25, 2017 (GMT -0600)
Monument Pass

Weather History for KMNH - October, 2013

Change the Weather History Date:

Friday, October 25, 2013

  Actual Average Record
Temperature  
Mean Temperature 46 °F -  
Max Temperature 60 °F - 71 °F (2007)
Min Temperature 32 °F - 19 °F (2001)
Degree Days  
Heating Degree Days 19    
Month to date heating degree days  
Cooling Degree Days 0    
Month to date cooling degree days  
Moisture  
Dew Point 29 °F    
Average Humidity 60    
Maximum Humidity 93    
Minimum Humidity 23    
Precipitation  
Precipitation 0.00 in - 0.15 in (2012)
Sea Level Pressure  
Sea Level Pressure 30.23 in    
Wind  
Wind Speed 8 mph (West)    
Max Wind Speed 13 mph    
Max Gust Speed 16 mph    
Visibility 10 miles    
Events      
T = Trace of Precipitation, MM = Missing Value Source: NWS Daily Summary

Daily Weather History Graph

Daily Weather History Graph

Search for Another Location

Airport or City:

Trip Planner

Search our weather history database for the weather conditions in past years. The results will help you decide how hot, cold, wet, or windy it might be!

Date:

Astronomy

Oct. 25, 2013 Rise Set
Actual Time 7:18 AM MDT 6:05 PM MDT
Civil Twilight 6:51 AM MDT 6:32 PM MDT
Nautical Twilight 6:20 AM MDT 7:04 PM MDT
Astronomical Twilight 5:49 AM MDT 7:35 PM MDT
Moon 11:28 PM MDT 1:00 PM MDT
Length of Visible Light 11h 41m
Length of Day
10h 46m
Waning Gibbous, 62% of the Moon is Illuminated
Oct 25
Waning Gibbous
Oct 26
Last Quarter
Nov 3
New
Nov 9
First Quarter
Nov 17
Full

Hourly Weather History & Observations

Time (MDT) Temp. Windchill Dew Point Humidity Pressure Visibility Wind Dir Wind Speed Gust Speed Precip Events Conditions
12:11 AM 32.0 °F 24.2 °F 30.2 °F 93% 30.28 in 10.0 mi South 9.2 mph - N/A   Clear
12:32 AM 32.0 °F 24.2 °F 30.2 °F 93% 30.27 in 10.0 mi South 9.2 mph - N/A   Clear
12:52 AM 32.0 °F 23.6 °F 30.2 °F 93% 30.26 in 10.0 mi SSW 10.4 mph - N/A   Clear
1:12 AM 32.0 °F 24.8 °F 30.2 °F 93% 30.25 in 10.0 mi SSW 8.1 mph - N/A   Clear
1:32 AM 32.0 °F 24.8 °F 30.2 °F 93% 30.25 in 10.0 mi South 8.1 mph - N/A   Clear
1:52 AM 32.0 °F 24.2 °F 30.2 °F 93% 30.25 in 10.0 mi South 9.2 mph - N/A   Clear
2:12 AM 32.0 °F 23.6 °F 30.2 °F 93% 30.24 in 10.0 mi SSW 10.4 mph - N/A   Clear
2:32 AM 32.0 °F 24.2 °F 30.2 °F 93% 30.24 in 10.0 mi SSW 9.2 mph - N/A   Clear
2:52 AM 33.8 °F 27.0 °F 32.0 °F 93% 30.24 in 10.0 mi SSW 8.1 mph - N/A   Clear
3:12 AM 33.8 °F 26.4 °F 32.0 °F 93% 30.24 in 10.0 mi SSW 9.2 mph - N/A   Clear
3:32 AM 32.0 °F 24.8 °F 30.2 °F 93% 30.23 in 10.0 mi SSW 8.1 mph - N/A   Clear
3:52 AM 33.8 °F 27.0 °F 32.0 °F 93% 30.23 in 10.0 mi SSW 8.1 mph - N/A   Clear
4:12 AM 33.8 °F 27.7 °F 30.2 °F 87% 30.23 in 10.0 mi SSW 6.9 mph - N/A   Clear
4:32 AM 33.8 °F 27.7 °F 30.2 °F 87% 30.23 in 10.0 mi SSW 6.9 mph - N/A   Clear
4:52 AM 33.8 °F 27.7 °F 30.2 °F 87% 30.23 in 10.0 mi SW 6.9 mph - N/A   Clear
5:12 AM 33.8 °F 27.7 °F 30.2 °F 87% 30.23 in 10.0 mi SW 6.9 mph - N/A   Clear
5:32 AM 35.6 °F 28.0 °F 30.2 °F 81% 30.23 in 10.0 mi SW 10.4 mph - N/A   Clear
5:52 AM 32.0 °F 24.8 °F 28.4 °F 87% 30.23 in 10.0 mi SSW 8.1 mph - N/A   Clear
6:12 AM 32.0 °F 27.5 °F 28.4 °F 87% 30.23 in 10.0 mi SW 4.6 mph - N/A   Clear
6:32 AM 32.0 °F 24.8 °F 28.4 °F 87% 30.23 in 10.0 mi West 8.1 mph - N/A   Clear
6:52 AM 35.6 °F 29.9 °F 28.4 °F 75% 30.23 in 10.0 mi West 6.9 mph - N/A   Clear
7:11 AM 32.0 °F 26.4 °F 26.6 °F 80% 30.23 in 10.0 mi West 5.8 mph - N/A   Clear
7:32 AM 35.6 °F 29.9 °F 28.4 °F 75% 30.22 in 10.0 mi West 6.9 mph - N/A   Clear
7:52 AM 35.6 °F 29.9 °F 28.4 °F 75% 30.23 in 10.0 mi SW 6.9 mph - N/A   Clear
8:12 AM 41.0 °F 35.8 °F 30.2 °F 65% 30.23 in 10.0 mi WSW 8.1 mph - N/A   Clear
8:31 AM 42.8 °F 38.6 °F 30.2 °F 61% 30.23 in 10.0 mi WSW 6.9 mph - N/A   Clear
8:52 AM 46.4 °F 42.9 °F 30.2 °F 53% 30.24 in 10.0 mi SW 6.9 mph - N/A   Clear
9:11 AM 50.0 °F - 32.0 °F 50% 30.24 in 10.0 mi West 6.9 mph - N/A   Clear
9:32 AM 53.6 °F - 28.4 °F 38% 30.24 in 10.0 mi West 6.9 mph - N/A   Clear
9:52 AM 55.4 °F - 28.4 °F 36% 30.24 in 10.0 mi WNW 6.9 mph - N/A   Clear
10:11 AM 55.4 °F - 26.6 °F 33% 30.24 in 10.0 mi NW 9.2 mph - N/A   Clear
10:31 AM 57.2 °F - 23.0 °F 27% 30.23 in 10.0 mi NNW 10.4 mph - N/A   Clear
10:52 AM 59.0 °F - 24.8 °F 27% 30.23 in 10.0 mi NNW 10.4 mph - N/A   Clear
11:12 AM 59.0 °F - 24.8 °F 27% 30.23 in 10.0 mi NNW 9.2 mph - N/A   Clear
11:32 AM 59.0 °F - 26.6 °F 29% 30.23 in 10.0 mi North 8.1 mph - N/A   Clear
11:52 AM 59.0 °F - 23.0 °F 25% 30.23 in 10.0 mi NNE 9.2 mph - N/A   Clear
12:12 PM 60.8 °F - 26.6 °F 27% 30.23 in 10.0 mi NNE 6.9 mph - N/A   Clear
12:32 PM 60.8 °F - 24.8 °F 25% 30.22 in 10.0 mi NNE 9.2 mph - N/A   Clear
12:52 PM 60.8 °F - 23.0 °F 23% 30.21 in 10.0 mi NE 6.9 mph - N/A   Clear
1:12 PM 60.8 °F - 23.0 °F 23% 30.20 in 10.0 mi NNE 8.1 mph - N/A   Clear
1:32 PM 60.8 °F - 23.0 °F 23% 30.19 in 10.0 mi ENE 8.1 mph - N/A   Clear
1:51 PM 60.8 °F - 23.0 °F 23% 30.18 in 10.0 mi NE 9.2 mph - N/A   Clear
2:12 PM 60.8 °F - 24.8 °F 25% 30.18 in 10.0 mi ENE 8.1 mph - N/A   Clear
2:32 PM 60.8 °F - 24.8 °F 25% 30.18 in 10.0 mi East 9.2 mph - N/A   Clear
2:52 PM 60.8 °F - 26.6 °F 27% 30.18 in 10.0 mi ENE 12.7 mph - N/A   Clear
3:12 PM 59.0 °F - 26.6 °F 29% 30.18 in 10.0 mi East 10.4 mph - N/A   Clear
3:32 PM 60.8 °F - 24.8 °F 25% 30.18 in 10.0 mi ENE 11.5 mph 16.1 mph N/A   Clear
3:52 PM 59.0 °F - 26.6 °F 29% 30.18 in 10.0 mi ENE 11.5 mph - N/A   Clear
4:12 PM 57.2 °F - 26.6 °F 31% 30.19 in 10.0 mi ENE 9.2 mph - N/A   Clear
4:32 PM 55.4 °F - 26.6 °F 33% 30.19 in 10.0 mi ENE 9.2 mph - N/A   Clear
4:52 PM 53.6 °F - 28.4 °F 38% 30.19 in 10.0 mi NE 8.1 mph - N/A   Clear
5:12 PM 53.6 °F - 30.2 °F 41% 30.20 in 10.0 mi NE 8.1 mph - N/A   Clear
5:32 PM 51.8 °F - 32.0 °F 47% 30.20 in 10.0 mi NE 4.6 mph - N/A   Mostly Cloudy
5:52 PM 50.0 °F - 32.0 °F 50% 30.21 in 10.0 mi NE 4.6 mph - N/A   Scattered Clouds
6:12 PM 46.4 °F - 32.0 °F 57% 30.21 in 10.0 mi Calm Calm - N/A   Scattered Clouds
6:32 PM 42.8 °F - 32.0 °F 66% 30.22 in 10.0 mi Calm Calm - N/A   Mostly Cloudy
6:52 PM 41.0 °F - 32.0 °F 70% 30.23 in 10.0 mi Calm Calm - N/A   Mostly Cloudy
7:12 PM 41.0 °F - 32.0 °F 70% 30.23 in 10.0 mi Calm Calm - N/A   Scattered Clouds
7:32 PM 41.0 °F 39.0 °F 32.0 °F 70% 30.23 in 10.0 mi West 3.5 mph - N/A   Clear
7:52 PM 41.0 °F 39.0 °F 32.0 °F 70% 30.24 in 10.0 mi WSW 3.5 mph - N/A   Clear
8:12 PM 42.8 °F 40.1 °F 32.0 °F 66% 30.24 in 10.0 mi West 4.6 mph - N/A   Clear
8:32 PM 42.8 °F 38.6 °F 32.0 °F 66% 30.25 in 10.0 mi WSW 6.9 mph - N/A   Clear
8:52 PM 44.6 °F 42.2 °F 32.0 °F 61% 30.25 in 10.0 mi WSW 4.6 mph - N/A   Clear
9:12 PM 41.0 °F 37.1 °F 32.0 °F 70% 30.25 in 10.0 mi West 5.8 mph - N/A   Clear
9:32 PM 41.0 °F 37.1 °F 32.0 °F 70% 30.26 in 10.0 mi West 5.8 mph - N/A   Clear
9:52 PM 41.0 °F 37.1 °F 32.0 °F 70% 30.26 in 10.0 mi West 5.8 mph - N/A   Scattered Clouds
10:12 PM 41.0 °F 37.1 °F 30.2 °F 65% 30.27 in 10.0 mi WNW 5.8 mph - N/A   Clear
10:32 PM 41.0 °F 36.4 °F 30.2 °F 65% 30.27 in 10.0 mi WNW 6.9 mph - N/A   Clear
10:51 PM 41.0 °F 35.8 °F 30.2 °F 65% 30.27 in 10.0 mi NW 8.1 mph - N/A   Clear
11:12 PM 42.8 °F 38.6 °F 30.2 °F 61% 30.28 in 10.0 mi NNW 6.9 mph - N/A   Clear
11:32 PM 41.0 °F 34.7 °F 30.2 °F 65% 30.28 in 10.0 mi NW 10.4 mph - N/A   Clear
11:52 PM 41.0 °F 35.2 °F 30.2 °F 65% 30.29 in 10.0 mi NW 9.2 mph - N/A   Clear